Location: Boda
(47.1872°N, 9.5454°E)
Time: 09:52:01
(UTC+00:00)

Helios 1B rocket - Pass Details

Date: 14 May 2021
Orbit: 573 x 582 km, 98.2° (Epoch: 17 June)

Event Time Altitude Azimuth Distance (km) Brightness Sun altitude
Rises 01:15:30 0° 12° (NNE) 2,817 7.3 -19.1°
Reaches altitude 10° 01:17:40 10° 11° (N) 1,912 6.2 -18.9°
Maximum altitude 01:21:48 78° 286° (WNW) 600 2.4 -18.5°
Enters shadow 01:23:05 43° 208° (SSW) 822 2.7 -18.4°
